Regional Weather Roundup
Issued by NWS

Home | Current Version | Previous Version | Text Only | Print | Product List | Glossary On
Versions: 1 2 3 4 5 6 7 8 9 10 11 12 13 14 15 16 17 18 19 20 21 22 23 24 25 26 27 28 29 30 31 32 33 34 35 36 37 38 39 40 41 42 43 44 45 46 47 48 49 50
000
ASUS46 KPQR 251610
RWROR

OREGON REGIONAL WEATHER ROUNDUP
NATIONAL WEATHER SERVICE PORTLAND OR
900 AM PDT SAT APR 25 2015

NOTE: "FAIR" INDICATES FEW OR NO CLOUDS BELOW 12,000 FEET WITH
NO SIGNIFICANT WEATHER AND/OR OBSTRUCTIONS TO VISIBILITY.

ORZ001>013-251700-
NORTHWEST OREGON


CITY           SKY/WX    TMP DP  RH WIND       PRES   REMARKS
ASTORIA        MOSUNNY   46  44  93 E5        29.99R
NEWPORT        SUNNY     50  46  87 CALM      30.01R
PORTLAND       MOSUNNY   49  45  86 NE3       29.99R
VANCOUVER WA   MOSUNNY   49  43  80 N3        29.99
SCAPPOOSE      SUNNY     49  42  77 NE5       29.98R
HILLSBORO      SUNNY     47  43  86 CALM      29.98R
AURORA         PTSUNNY   48  43  82 CALM      30.00R
MCMINNVILLE    MOSUNNY   47  44  90 CALM      29.99R
SALEM          PTSUNNY   51  45  79 CALM      29.98R
CORVALLIS      SUNNY     48  43  81 CALM      29.99R
EUGENE         PTSUNNY   50  44  80 SW7       29.98S
$$

ORZ021-028-251700-
SOUTHWEST OREGON


CITY           SKY/WX    TMP DP  RH WIND       PRES   REMARKS
NORTH BEND     CLOUDY    52  48  87 SE7       30.01S
BROOKINGS      LGT RAIN  51  48  89 CALM      30.01S
ROSEBURG       CLOUDY    51  42  71 SE6       30.00R
SEXTON SUMMIT  PTSUNNY   36  33  89 CALM      29.93S
MEDFORD        PTSUNNY   48  42  80 SW3       29.98R
$$

ORZ014>016-041-251700-
COLUMBIA GORGE


CITY           SKY/WX    TMP DP  RH WIND       PRES   REMARKS
TROUTDALE      MOSUNNY   50  44  80 W5        29.98R
THE DALLES     CLOUDY    47  40  76 NW12      29.95R
$$

ORZ029>031-041-044-049-050-061>064-502-503-505>511-251700-
EASTERN OREGON


CITY           SKY/WX    TMP DP  RH WIND       PRES   REMARKS
REDMOND        CLOUDY    40  30  67 CALM      29.90R
BEND           PTSUNNY   43  30  61 W7        29.88S
PRINEVILLE     CLOUDY    41  30  65 NE5       29.90R
KLAMATH FALLS  CLOUDY    40  32  73 W7        29.91R
LAKEVIEW       CLOUDY    37  28  70 N14G20    29.89R WCI  29
HERMISTON      CLOUDY    50  36  58 W8        29.91R
PENDLETON      CLOUDY    46  34  62 VRB3      29.89S
JOHN DAY       MOSUNNY   42  32  69 W6        29.87F
MEACHAM        CLOUDY    40  31  70 VRB6      29.86R
LA GRANDE      PTSUNNY   43  28  56 CALM      29.87S
BAKER CITY     MOSUNNY   41  32  70 CALM      29.86S
BURNS          PTSUNNY   45  27  49 W13       29.85R
ROME             N/A     44  32  62 VRB3      29.81S
ONTARIO        MOSUNNY   53  30  41 VRB6      29.84S
$$


USA.gov is the U.S. government's official web portal to all federal, state and local government web resources and services.